Location: Corcelles
(46.1547°N, 4.7234°E)
Time: 04:04:42
(UTC+00:00)

Cosmos 2322 Rocket - Pass Details

Date: 14 July 2020
Orbit: 832 x 851 km, 71.0° (Epoch: 06 August)

Event Time Altitude Azimuth Distance (km) Brightness Sun altitude
Rises 02:43:49 0° 337° (NNW) 3,405 5.7 -11.3°
Reaches altitude 10° 02:46:25 10° 345° (NNW) 2,470 5.1 -11.0°
Maximum altitude 02:51:46 42° 55° (NE) 1,192 3.6 -10.4°
Drops below altitude 10° 02:57:08 10° 126° (SE) 2,468 4.7 -9.7°
Sets 02:59:43 0° 133° (SE) 3,402 5.4 -9.4°
